Location: Asheville, NC
(35.6000°N, 82.5500°W)
Time: 21:58:46
(UTC-04:00)

STRAND 1 - Visible Passes

Search period start: 25 April 2018 00:00
Search period end: 05 May 2018 00:00
Orbit: 767 x 782 km, 98.5° (Epoch: 25 April)

Date Brightness Start Highest point End Pass type
(mag) Time Alt. Az. Time Alt. Az. Time Alt. Az.
25 Apr ? 21:11:07 10° N 21:16:13 81° WNW 21:21:19 10° SSW visible
26 Apr ? 20:37:23 10° NNE 20:42:17 45° E 20:47:09 10° S visible
26 Apr ? 22:17:37 10° NNW 22:21:04 19° WNW 22:24:31 10° WSW visible
27 Apr ? 21:42:44 10° N 21:47:26 39° WNW 21:52:08 10° SW visible
28 Apr ? 21:08:32 10° NNE 21:13:39 85° WNW 21:18:45 10° SSW visible
29 Apr ? 20:34:51 10° NNE 20:39:42 43° E 20:44:32 10° S visible
29 Apr ? 22:14:55 10° NNW 22:18:31 20° WNW 22:22:07 10° WSW visible
30 Apr ? 21:40:07 10° N 21:44:53 41° WNW 21:49:38 10° SW visible
01 May ? 21:05:57 10° NNE 21:11:04 90° ENE 21:16:12 10° SSW visible
02 May ? 22:12:14 10° NNW 22:15:58 21° WNW 22:19:42 10° WSW visible
03 May ? 21:37:30 10° N 21:42:19 44° WNW 21:47:08 10° SW visible
04 May ? 21:03:22 10° NNE 21:08:30 85° E 21:13:37 10° SSW visible
04 May ? 22:46:22 10° NW 22:46:54 10° WNW 22:47:28 10° WNW visible
